Regional Weather Roundup
Issued by NWS

Home | Current Version | Previous Version | Text Only | Print | Product List | Glossary On
Versions: 1 2 3 4 5 6 7 8 9 10 11 12 13 14 15 16 17 18 19 20 21 22 23 24 25 26 27 28 29 30 31 32 33 34 35 36 37 38 39 40 41 42 43 44 45 46 47 48 49 50
000
ASUS44 KBMX 200710
RWRAL

ALABAMA REGIONAL WEATHER ROUNDUP
NATIONAL WEATHER SERVICE BIRMINGHAM AL
100 AM CST MON FEB 20 2017

NOTE: "FAIR" INDICATES FEW OR NO CLOUDS BELOW 12,000 FEET
WITH NO SIGNIFICANT WEATHER AND/OR OBSTRUCTIONS TO VISIBILITY.

THE REMARK "TC" DENOTES TEMPERATURE IN DEGREES CELSIUS.

ALZ001>011-014-016>018-020-200800-
NORTH ALABAMA

CITY           SKY/WX    TMP DP  RH WIND       PRES   REMARKS
MUSCLE SHOALS  CLOUDY    52  48  86 CALM      30.14R
HUNTSVILLE     PTCLDY    52  49  89 NE3       30.12F
DECATUR        MOCLDY    48  48 100 CALM      30.13S
HALEYVILLE     FAIR      49  46  90 CALM      30.15R
GADSDEN        PTCLDY    46  44  93 NE3       30.14F
$$

ALZ012-013-022-023-030>036-040>044-200800-
WEST CENTRAL ALABAMA

CITY           SKY/WX    TMP DP  RH WIND       PRES   REMARKS
TUSCALOOSA     PTCLDY    51  48  89 NE5       30.11S
$$

ALZ015-024>027-033>036-040>044-200800-
CENTRAL ALABAMA

CITY           SKY/WX    TMP DP  RH WIND       PRES   REMARKS
BIRMINGHAM     PTCLDY    53  48  83 CALM      30.14S
MONTGOMERY     PTCLDY    53  46  77 E5        30.11F
SHELBY CO ARPT MOCLDY    52  50  93 CALM      30.12S
MAXWELL AFB    CLOUDY    52  51  97 CALM      30.09F
GREENVILLE     FAIR      56  48  74 CALM      30.09F
$$

ALZ019-021-028-029-037-038-045>048-200800-
EAST CENTRAL ALABAMA

CITY           SKY/WX    TMP DP  RH WIND       PRES   REMARKS
ANNISTON       CLEAR     49  47  93 NE5       30.14F
ALEXANDER CITY PTCLDY    46  44  93 CALM      30.13F
AUBURN         CLEAR     51  48  89 NE7       30.14F
$$

ALZ051>064-200800-
SOUTHWEST ALABAMA

CITY           SKY/WX    TMP DP  RH WIND       PRES   REMARKS
MOBILE         CLEAR     60  58  92 CALM      30.08F FOG
BROOKLEY FIELD FOG       58  58 100 CALM      30.09S VSB 1/2
EVERGREEN      CLEAR     50  48  93 CALM      30.09F FOG
$$

ALZ049-050-065>069-200800-
SOUTHEAST ALABAMA

CITY           SKY/WX    TMP DP  RH WIND       PRES   REMARKS
DOTHAN         CLEAR     53  52  96 NE5       30.14F
OZARK          CLEAR     53  50  92 CALM      30.10F
TROY           CLEAR     49  47  93 NE5       30.11F
EUFAULA        FAIR      48  46  93 CALM      30.12F FOG
$$



USA.gov is the U.S. government's official web portal to all federal, state and local government web resources and services.